Location: Seattle
(47.6064°N, 122.3308°W)
Time: 18:42:10
(UTC-07:00)

AO-7 - Pass Details

Date: 23 March 2023
Orbit: 1439 x 1459 km, 101.9° (Epoch: 07 June)

Event Time Altitude Azimuth Distance (km) Brightness Sun altitude
Rises 04:46:34 0° 25° (NNE) 4,570 ? -23.3°
Reaches altitude 10° 04:49:58 10° 37° (NE) 3,585 ? -22.8°
Maximum altitude 04:56:51 28° 93° (E) 2,469 ? -21.8°
Drops below altitude 10° 05:03:39 10° 149° (SSE) 3,556 ? -20.8°
Sets 05:06:59 0° 161° (SSE) 4,526 ? -20.3°
